Hourly Data Report for September 03, 2017

All times are specified in Local Standard Time (LST). Add 1 hour to adjust for Daylight Saving Time where and when it is observed.

CHARLOTTETOWN A
PRINCE EDWARD ISLAND

46°17'21.000" N
63°07'09.000" W
48.50 m
8300301
71706
YYG

Download Data

Hourly Data (September 2017)
Hourly Data Report for September 3, 2017
Temp Definition
°C
Dew Point Temp Definition
°C
Rel Hum Definition
%
Wind Dir Definition
10's deg

Wind Spd Definition
km/h
Visibility Definition
km
Stn Press Definition
kPa
Hmdx Definition


Wind Chill Definition


Weather Definition


TIME
00:00 Legend Double Dagger 8.7 6.5 86 27 6 24.1 101.72     LegendNANA
01:00 Legend Double Dagger 6.7 5.1 90 24 4 24.1 101.76     LegendNANA
02:00 Legend Double Dagger 6.8 5.9 94 24 5 24.1 101.79     Clear
03:00 Legend Double Dagger 6.8 6.0 95 25 4 24.1 101.77     LegendNANA
04:00 Legend Double Dagger 8.8 8.1 96 23 8 24.1 101.81     LegendNANA
05:00 Legend Double Dagger 6.4 5.8 96 36 2 24.1 101.83     Clear
06:00 Legend Double Dagger 6.8 6.3 97 11 4 0.4 101.85     Fog
07:00 Legend Double Dagger 10.2 9.8 97 13 5 0.8 101.89     Fog
08:00 Legend Double Dagger 12.9 12.6 98 11 8 24.1 101.91     Mostly Cloudy
09:00 Legend Double Dagger 14.7 13.9 95 16 12 24.1 101.92     LegendNANA
10:00 Legend Double Dagger 15.9 10.8 71 19 20 24.1 101.95     LegendNANA
11:00 Legend Double Dagger 16.3 11.0 71 17 17 24.1 101.88     Mostly Cloudy
12:00 Legend Double Dagger 17.3 9.3 59 16 17 24.1 101.79     LegendNANA
13:00 Legend Double Dagger 17.8 8.8 55 16 16 24.1 101.73     LegendNANA
14:00 Legend Double Dagger 17.9 8.7 54 15 14 24.1 101.66     Mostly Cloudy
15:00 Legend Double Dagger 18.0 8.8 55 15 8 24.1 101.63     LegendNANA
16:00 Legend Double Dagger 17.8 9.9 60 15 13 24.1 101.53     LegendNANA
17:00 Legend Double Dagger 17.9 11.0 64 17 17 24.1 101.51     Cloudy
18:00 Legend Double Dagger 17.1 11.1 68 16 22 24.1 101.47     LegendNANA
19:00 Legend Double Dagger 15.7 10.4 70 16 27 24.1 101.43     LegendNANA
20:00 Legend Double Dagger 14.9 10.2 73 15 23 24.1 101.31     Mostly Cloudy
21:00 Legend Double Dagger 15.0 10.7 75 15 24 24.1 101.21     LegendNANA
22:00 Legend Double Dagger 14.6 11.2 80 15 21 24.1 101.10     LegendNANA
23:00 Legend Double Dagger 14.5 11.1 80 15 27 24.1 100.97     Cloudy

Notes on Data Quality.

Legend

  • E = Estimated
  • M = Missing
  • NA = Not Available
  • ‡ = Partner data that is not subject to review by the National Climate Archives
Date modified: